OpenBCM V1.08-5-g2f4a (Linux)

Packet Radio Mailbox

IZ3LSV

[San Dona' di P. JN]

 Login: GUEST





  
PA2SNK > KEPS     08.02.22 19:31l 599 Lines 29282 Bytes #999 (0) @ WW
BID : 5572_PA2SNK
Read: GUEST
Subj: 2Line Orbital Elements 22013.A
Path: IZ3LSV<ED1ZAC<LU4ECL<VK2RZ<VK2IO<N7HPX<W9GM<N3HYM<IV3BVK<PE1RRR<
      PI8ZTM<PI8SNK
Sent: 220204/1000Z 17562@PI8SNK.#FRL.NLD.EURO [SNEEK/SNITS] FBB7.01.35 alpha
From: PA2SNK@PI8SNK.#FRL.NLD.EURO
To  : KEPS@AMSAT


HR AMSAT ORBITAL ELEMENTS FOR AMATEUR SATELLITES IN NASA FORMAT
FROM WA5QGD FORT WORTH,TX January 13, 2022
BID: ORB22013.N

DECODE 2-LINE ELSETS WITH THE FOLLOWING KEY:
1 AAAAAU 00  0  0 BBBBB.BBBBBBBB  .CCCCCCCC  00000-0  00000-0 0  DDDZ
2 AAAAA EEE.EEEE FFF.FFFF GGGGGGG HHH.HHHH III.IIII JJ.JJJJJJJJKKKKKZ
KEY: A-CATALOGNUM B-EPOCHTIME C-DECAY D-ELSETNUM E-INCLINATION F-RAAN
G-ECCENTRICITY H-ARGPERIGEE I-MNANOM J-MNMOTION K-ORBITNUM Z-CHECKSUM

TO ALL RADIO AMATEURS BT

AO-07
1 07530U 74089B   22013.92444431 -.00000031  00000-0  91986-4 0  9994
2 07530 101.8852 353.4281 0012246 339.4339  77.6345 12.53652336158100
UO-11
1 14781U 84021B   22013.92734268  .00000268  00000-0  38759-4 0  9997
2 14781  97.6052   8.5494 0009888 106.7323 253.4978 14.83408648 17133
LO-19
1 20442U 90005G   22013.79527959  .00000016  00000-0  22652-4 0  9995
2 20442  98.7723 336.4883 0010667 262.7942  97.2029 14.33015848670950
HUBBLE
1 20580U 90037B   22013.66468385  .00001032  00000-0  51094-4 0  9997
2 20580  28.4701 113.9109 0002679 161.8858 309.7220 15.09936771542792
MET-2/21
1 22782U 93055A   22013.78049932  .00000007  00000-0 -75264-5 0  9990
2 22782  82.5502 137.0046 0023348  63.4413  44.7329 13.83843969432616
AO-27
1 22825U 93061C   22013.89843712  .00000019  00000-0  25091-4 0  9999
2 22825  98.9040  41.5318 0009161 137.2121 222.9775 14.30139245476066
IO-26
1 22826U 93061D   22013.60898552  .00000027  00000-0  28319-4 0  9996
2 22826  98.8984  41.1262 0009833 126.3128 233.8963 14.30480950476274
FO-29
1 24278U 96046B   22013.66994005 -.00000021  00000-0  17476-4 0  9998
2 24278  98.5386  58.4998 0349665 324.9764  32.8822 13.53108963254673
NOAA-15
1 25338U 98030A   22013.92577031  .00000056  00000-0  41618-4 0  9998
2 25338  98.6623  45.3451 0010861  33.0991 327.0867 14.26082030230992
GO-32
1 25397U 98043D   22013.81912104 -.00000005  00000-0  17641-4 0  9993
2 25397  98.7987 324.0521 0001408 148.8118 211.3144 14.23727852221425
ISS
1 25544U 98067A   22014.08607557  .00005702  00000-0  10973-3 0  9994
2 25544  51.6450  19.7112 0006684  19.1620  88.5474 15.49483897321287
NO-44
1 26931U 01043C   22013.74618526 -.00000017  00000-0  25067-4 0  9999
2 26931  67.0518  97.7046 0006758 280.5454  79.4886 14.30654275 59279
SO-50
1 27607U 02058C   22013.56992475  .00000215  00000-0  50846-4 0  9997
2 27607  64.5554  55.7537 0066221 325.8025  33.8820 14.75870569 25516
CO-55
1 27844U 03031E   22013.74204536  .00000112  00000-0  69856-4 0  9993
2 27844  98.6801  23.7607 0009768 184.1488 175.9610 14.22368574961870
CO-57
1 27848U 03031J   22013.93899949  .00000085  00000-0  58235-4 0  9994
2 27848  98.6852  24.5003 0009401 197.5201 162.5654 14.21937417961725
RS-22
1 27939U 03042A   22013.79560807  .00000291  00000-0  60569-4 0  9991
2 27939  98.1668 154.8145 0012189 341.9656  18.1119 14.67101942978362
NOAA-18
1 28654U 05018A   22013.87772312  .00000089  00000-0  71973-4 0  9992
2 28654  98.9699  84.3148 0014856  51.3133 308.9365 14.12676473858157
CO-58
1 28895U 05043F   22013.59596191  .00000320  00000-0  69931-4 0  9994
2 28895  98.0839 147.6213 0015450 268.3249  91.6184 14.64051063864753
Falconsat-3
1 30776U 07006E   22013.88536573  .00010792  00000-0  22909-3 0  9993
2 30776  35.4316 184.9120 0002698  18.4532 341.6294 15.44253592825611
CO-65
1 32785U 08021C   22013.82844523  .00000739  00000-0  84126-4 0  9994
2 32785  97.6376 349.8401 0013686  32.1034 328.1015 14.88984229743471
AAUSAT2
1 32788U 08021F   22013.93974224  .00001230  00000-0  11410-3 0  9993
2 32788  97.5210   5.0167 0009961 286.4350  73.5776 14.96150953745325
DO-64
1 32789U 08021G   22013.60838975  .00003850  00000-0  23793-3 0  9997
2 32789  97.3576  45.7945 0012636 133.3493 226.8792 15.10364450748538
CO-66
1 32791U 08021J   22013.67436096  .00001139  00000-0  11824-3 0  9995
2 32791  97.5943 355.3697 0012861 353.3086   6.7960 14.91784612744113
RS-30
1 32953U 08025A   22013.77133896  .00000021  00000-0  80971-4 0  9991
2 32953  82.5047 280.1210 0018441 238.4484 121.4797 12.43106815619115
PRISM
1 33493U 09002B   22013.88052021  .00002493  00000-0  21464-3 0  9995
2 33493  98.2156 351.9648 0013032 315.2688  44.7481 14.98318230705822
NOAA-19
1 33591U 09005A   22013.93260389  .00000074  00000-0  65456-4 0  9994
2 33591  99.1670  44.6804 0013014 261.4100  98.5596 14.12521795666371
SRMSAT
1 37841U 11058D   22013.56603863  .00000341  00000-0  42568-4 0  9990
2 37841  19.9718 111.1224 0012014  81.9495 309.0132 14.10720957529567
HRBE
1 37855U 11061F   22013.70225993  .00003654  00000-0  17586-3 0  9990
2 37855 101.7204  51.5902 0162374 164.7485 195.8708 15.09211910557874
RS-40
1 38735U 12041C   22013.90362626 -.00000009  00000-0 -13614-3 0  9995
2 38735  82.4779   1.8655 0017374 352.3525   7.7287 12.42583554429327
ZACUBE-1
1 39417U 13066B   22013.88917868  .00000519  00000-0  70410-4 0  9994
2 39417  97.6174 352.6178 0058033 189.9041 170.1034 14.81770064440230
Delfi-N3xt
1 39428U 13066N   22013.80977769  .00001132  00000-0  18353-3 0  9993
2 39428  97.8027 315.0359 0120326  52.3921 308.8136 14.68355586435836
GOMX-1
1 39430U 13066Q   22013.90750135  .00000319  00000-0  65999-4 0  9998
2 39430  97.8159 289.9098 0150113 171.4207 188.9622 14.59806241433745
LO-74
1 39440U 13066AA  22013.89747730  .00000621  00000-0  92146-4 0  9994
2 39440  97.7059 338.2114 0078032 273.0100  86.2183 14.76488453437477
AO-73
1 39444U 13066AE  22013.87653832  .00000624  00000-0  81487-4 0  9994
2 39444  97.6064 354.9973 0057292 179.0571 181.0761 14.82727091438610
SPROUT
1 39770U 14029E   22013.78407364  .00001767  00000-0  19304-3 0  9990
2 39770  97.9311 130.1647 0007799 230.0413 130.0117 14.89154979414633
DTUSAT-2
1 40030U 14033W   22013.74302736  .00000777  00000-0  87986-4 0  9991
2 40030  97.9290 306.0729 0011152 196.6733 163.4119 14.89284181410610
EO-80
1 40032U 14033Y   22013.77900281  .00000739  00000-0  83985-4 0  9998
2 40032  97.9296 306.1192 0011118 197.5903 162.4930 14.89247814410593
HODOYOSHI-1
1 40299U 14070B   22013.80517171  .00001733  00000-0  71283-4 0  9993
2 40299  97.2651  86.5054 0011805 332.3393 166.8062 15.25416260399478
FIREBIRD FU3
1 40377U 15003B   22013.79293002  .00009145  00000-0  31130-3 0  9990
2 40377  99.1124 204.7793 0111130 186.6595 173.3168 15.24935985384812
FIREBIRD FU4
1 40378U 15003C   22013.82686964  .00008681  00000-0  29510-3 0  9991
2 40378  99.1129 204.9992 0111140 186.2760 173.7088 15.25001347384825
GRIFEX
1 40379U 15003D   22013.75988581  .00006789  00000-0  26280-3 0  9992
2 40379  99.1145 192.3503 0123040 224.2553 134.8788 15.19825516384108
XW-2A
1 40903U 15049E   22013.81254127  .00007391  00000-0  14400-3 0  9995
2 40903  97.2087  72.5933 0010499 334.9010 136.6831 15.47783394355308
XW-2C
1 40906U 15049H   22013.83912867  .00001782  00000-0  92240-4 0  9999
2 40906  97.4918  18.7134 0014340 169.8286 274.1514 15.17450640349468
XW-2D
1 40907U 15049J   22013.78243002  .00002183  00000-0  11092-3 0  9993
2 40907  97.4910  18.5363 0013823 165.8357 272.8018 15.17868099349491
LILACSAT-2
1 40908U 15049K   22013.83281764  .00000833  00000-0  48259-4 0  9993
2 40908  97.5127  16.1085 0015029 185.8695 258.7232 15.14854413349072
XW-2E
1 40909U 15049L   22013.83295813  .00003149  00000-0  14602-3 0  9991
2 40909  97.4672  22.8594 0013363 148.4320 289.7579 15.20725230349894
XW-2F
1 40910U 15049M   22013.84112497  .00003132  00000-0  14734-3 0  9998
2 40910  97.4748  21.9699 0014643 149.7932 295.1693 15.20218554349671
XW-2B
1 40911U 15049N   22013.79711824  .00002245  00000-0  11427-3 0  9992
2 40911  97.4903  19.1969 0013687 166.8914 270.8188 15.17776561349381
DCBB
1 40912U 15049P   22013.80625262  .00003710  00000-0  16075-3 0  9997
2 40912  97.4425  26.3093 0015269 120.7376 318.2355 15.22914762350195
TW-1A
1 40928U 15051D   22013.81672119  .00012529  00000-0  22656-3 0  9991
2 40928  97.0613  38.9292 0006769 232.9735 212.8653 15.49793928354223
IO-86
1 40931U 15052B   22013.32043605  .00000872  00000-0  32291-4 0  9999
2 40931   5.9976 195.6862 0012602 132.0417 228.0758 14.76720349340373
ATHENOXAT-1
1 41168U 15077C   22013.76093138  .00005247  00000-0  22090-3 0  9999
2 41168  14.9923 153.3462 0009629 225.2865 172.3432 15.17210001336754
ChubuSat-2
1 41338U 16012B   22013.45973677  .00000852  00000-0  58813-4 0  9999
2 41338  31.0030 290.2883 0013373  55.2697 304.9196 15.00786388324176
ChubuSat-3
1 41339U 16012C   22013.46333867  .00000708  00000-0  47590-4 0  9992
2 41339  31.0116 287.2949 0013299  62.8137 297.3880 15.00911727324173
Horyu-4
1 41340U 16012D   22013.41046275  .00001319  00000-0  90871-4 0  9992
2 41340  31.0041 268.4502 0013387  99.0544 261.1607 15.02319932324381
e-st@r-II
1 41459U 16025D   22013.84635863  .00003551  00000-0  16812-3 0  9993
2 41459  98.1662 168.2139 0156273  72.9570 288.8707 15.09866924314144
AAUSAT4
1 41460U 16025E   22013.92805363  .00005429  00000-0  23874-3 0  9990
2 41460  98.1621 173.3362 0140869  52.8939 308.5073 15.13785799314529
LO-87
1 41557U 16033B   22013.85420456  .00004733  00000-0  16022-3 0  9998
2 41557  97.3908 111.7968 0011458 201.7847 301.6720 15.31029101313707
NuSat2
1 41558U 16033C   22013.82826337  .00004642  00000-0  14718-3 0  9993
2 41558  97.4059 116.6280 0010681 192.0014 321.1555 15.33161227313938
Lapan A3
1 41603U 16040E   22013.84530523  .00000474  00000-0  24859-4 0  9990
2 41603  97.2299  57.4563 0013053 352.3889 121.8328 15.20236824308542
Pratham
1 41783U 16059A   22013.68181624  .00000150  00000-0  37970-4 0  9994
2 41783  97.9372  61.2605 0032325 303.9626  55.8506 14.63215006282993
